Location: Newark
(13.6797°N, 8.5297°E)
Time: 04:57:36
(UTC+00:00)

Altair - All Passes

Search period start: 26 January 2020 00:00
Search period end: 05 February 2020 00:00
Orbit: 1502 x 1682 km, 47.2° (Epoch: 25 January)

Date Brightness Start Highest point End Pass type
(mag) Time Alt. Az. Time Alt. Az. Time Alt. Az.
26 Jan - 03:14:05 10° SSE 03:17:40 12° SE 03:21:16 10° ESE visible
26 Jan - 05:12:14 10° SSW 05:21:54 74° SE 05:31:54 10° NE visible
26 Jan - 07:19:03 10° W 07:27:11 28° NW 07:35:31 10° NNE daylight
26 Jan - 13:47:19 10° NNW 13:55:12 26° NE 14:02:51 10° E daylight
26 Jan - 15:50:40 10° NW 16:00:36 81° SW 16:10:08 10° SE daylight
26 Jan - 18:00:11 10° W 18:04:46 14° SW 18:09:19 10° SSW visible
27 Jan - 02:51:39 10° SE 02:52:29 10° SE 02:53:19 10° ESE visible
27 Jan - 04:47:11 10° SSW 04:56:44 67° SE 05:06:37 10° NE visible
27 Jan - 06:53:28 10° W 07:01:52 31° NW 07:10:30 10° NNE daylight
27 Jan - 13:22:20 10° NNW 13:29:51 23° NE 13:37:10 10° E daylight
27 Jan - 15:25:27 10° NW 15:35:26 89° SW 15:45:01 10° SE daylight
27 Jan - 17:33:59 10° W 17:39:37 17° SW 17:45:10 10° SSW visible
28 Jan - 04:22:10 10° SSW 04:31:34 60° SE 04:41:18 10° NE visible
28 Jan - 06:27:56 10° WSW 06:36:33 34° NW 06:45:28 10° NNE daylight
28 Jan - 12:57:22 10° N 13:04:29 21° NE 13:11:26 10° E daylight
28 Jan - 15:00:14 10° NW 15:10:15 83° NE 15:19:52 10° SE daylight
28 Jan - 17:08:02 10° W 17:14:28 20° SW 17:20:48 10° S daylight
29 Jan - 03:57:11 10° SSW 04:06:25 53° SE 04:15:59 10° NE visible
29 Jan - 06:02:26 10° WSW 06:11:16 38° NW 06:20:24 10° NNE daylight
29 Jan - 12:32:27 10° N 12:39:06 19° NNE 12:45:37 10° ENE daylight
29 Jan - 14:35:03 10° NW 14:45:04 76° NE 14:54:41 10° SE daylight
29 Jan - 16:42:13 10° W 16:49:19 23° SW 16:56:17 10° S daylight
30 Jan - 03:32:15 10° SSW 03:41:16 47° SE 03:50:36 10° ENE visible
30 Jan - 05:37:00 10° WSW 05:46:00 42° NW 05:55:20 10° NNE daylight
30 Jan - 07:51:37 10° NW 07:53:17 10° NNW 07:54:59 10° NNW daylight
30 Jan - 12:07:33 10° N 12:13:42 17° NNE 12:19:44 10° ENE daylight
30 Jan - 14:09:52 10° NW 14:19:52 69° NE 14:29:28 10° SE daylight
30 Jan - 16:16:30 10° WNW 16:24:11 26° SW 16:31:41 10° S daylight
31 Jan - 03:07:21 10° SSW 03:16:08 42° SE 03:25:12 10° ENE visible
31 Jan - 05:11:36 10° WSW 05:20:44 46° NW 05:30:15 10° NNE visible
31 Jan - 07:24:42 10° NW 07:27:47 12° NNW 07:30:54 10° N daylight
31 Jan - 11:42:42 10° N 11:48:16 16° NNE 11:53:45 10° ENE daylight
31 Jan - 13:44:43 10° NNW 13:54:39 62° NE 14:04:13 10° SE daylight
31 Jan - 15:50:53 10° WNW 15:59:03 30° SW 16:06:59 10° S daylight
01 Feb - 02:42:30 10° S 02:51:00 37° SE 02:59:44 10° ENE visible
01 Feb - 04:46:14 10° WSW 04:55:30 51° NW 05:05:08 10° NNE visible
01 Feb - 06:58:17 10° NW 07:02:18 13° NNW 07:06:22 10° N daylight
01 Feb - 11:17:55 10° N 11:22:49 14° NNE 11:27:40 10° ENE daylight
01 Feb - 13:19:35 10° NNW 13:29:26 56° NE 13:38:55 10° ESE daylight
01 Feb - 15:25:20 10° WNW 15:33:53 34° SW 15:42:14 10° S daylight
02 Feb - 02:17:42 10° S 02:25:51 33° SE 02:34:14 10° ENE visible
02 Feb - 04:20:55 10° WSW 04:30:16 57° NW 04:40:01 10° NNE visible
02 Feb - 06:32:04 10° WNW 06:36:50 14° NNW 06:41:41 10° N daylight
02 Feb - 10:53:14 10° N 10:57:21 13° NNE 11:01:25 10° NE daylight
02 Feb - 12:54:28 10° NNW 13:04:11 51° NE 13:13:35 10° ESE daylight
02 Feb - 14:59:50 10° WNW 15:08:45 38° SW 15:17:26 10° SSE daylight
03 Feb - 01:52:58 10° S 02:00:43 29° SE 02:08:41 10° ENE visible
03 Feb - 03:55:38 10° SW 04:05:04 63° NW 04:14:53 10° NNE visible
03 Feb - 06:06:00 10° WNW 06:11:24 16° NNW 06:16:54 10° N daylight
03 Feb - 10:28:43 10° N 10:31:52 12° NNE 10:34:59 10° NE daylight
03 Feb - 12:29:22 10° NNW 12:38:56 46° NE 12:48:13 10° ESE daylight
03 Feb - 14:34:23 10° WNW 14:43:36 43° SW 14:52:34 10° SSE daylight
04 Feb - 01:28:17 10° S 01:35:35 25° SE 01:43:03 10° ENE visible
04 Feb - 03:30:24 10° SW 03:39:51 69° NW 03:49:44 10° NE visible
04 Feb - 05:40:02 10° WNW 05:45:58 17° NNW 05:52:02 10° N daylight
04 Feb - 10:04:40 10° NNE 10:06:21 10° NNE 10:08:01 10° NE daylight
04 Feb - 12:04:16 10° NNW 12:13:40 42° NE 12:22:48 10° ESE daylight
04 Feb - 14:08:58 10° WNW 14:18:27 48° SW 14:27:39 10° SSE daylight
